STARLINK-32114 (60287 NORAD) Tracking and Keplerian Element Data

This shows tracking and keplerian element data for the satellite.

Feedback or suggestion? Click here.




ElementValue
Catalog60287
NameSTARLINK-32114
Epoch Orbit1301
Epoch Day286.69220332
Epoch Year2024
RAAN275.5741
Inclination53.1598
Eccentricity0.0001446
Argument of Perigee98.6405
Mean Anonmoly261.476
Mean Motion15.30156742
Decay Rate2.679E-05
L11 60287U 24132K 24286.69220332 .00002679 00000+0 10267-3 0 9996
L22 60287 53.1598 275.5741 0001446 98.6405 261.4760 15.30156742 13019



Live tracking and technical data element details for STARLINK-32114 (NORAD 60287). STARLINK-32114 can be tracked NOW for your location showing map with azimuth and elevation plus other details from your city location.







IsCatalogInMostPopularTable: catalog: 60287, numindb: 12
Update: records affected: 1



GetName: 60287 STARLINK-32114

Hit Count: updated at: Thu, 23 Jan 2025 14:51:18 GMT